| time (UTC) | temp F | wind direction | speed MPH | gust MPH | rain 1hr in | rain 24hr in | rain mn in | humidity % | barometer mb |
| 20260505022311 | 72 | 200 | 0.0 | 2.0 | 0.00 | 0.00 | 0.00 | 55 | 1011.7 |
| 20260505021808 | 73 | 200 | 0.0 | 2.0 | 0.00 | 0.00 | 0.00 | 54 | 1011.8 |
| 20260505021306 | 73 | 200 | 0.0 | 2.0 | 0.00 | 0.00 | 0.00 | 54 | 1011.8 |
| 20260505020806 | 73 | 200 | 0.0 | 2.0 | 0.00 | 0.00 | 0.00 | 54 | 1011.7 |
| 20260505020316 | 73 | 200 | 0.0 | 1.0 | 0.00 | 0.00 | 0.00 | 52 | 1011.8 |
| 20260505015805 | 73 | 200 | 0.0 | 2.0 | 0.00 | 0.00 | 0.00 | 51 | 1011.7 |
| 20260505015304 | 73 | 200 | 0.0 | 2.0 | 0.00 | 0.00 | 0.00 | 50 | 1011.7 |
| 20260505015013 | 74 | 200 | 0.0 | 1.0 | 0.00 | 0.00 | 0.00 | 49 | 1011.7 |
| 20260505014541 | 74 | 200 | 0.0 | 2.0 | 0.00 | 0.00 | 0.00 | 51 | 1011.7 |
| 20260505014302 | 74 | 200 | 0.0 | 2.0 | 0.00 | 0.00 | 0.00 | 51 | 1011.7 |
| 20260505013802 | 74 | 200 | 0.0 | 2.0 | 0.00 | 0.00 | 0.00 | 51 | 1011.7 |
| 20260505013301 | 74 | 200 | 0.0 | 2.0 | 0.00 | 0.00 | 0.00 | 50 | 1011.7 |
| 20260505012758 | 74 | 200 | 0.0 | 2.0 | 0.00 | 0.00 | 0.00 | 49 | 1011.7 |
| 20260505012256 | 74 | 200 | 0.0 | 2.0 | 0.00 | 0.00 | 0.00 | 50 | 1011.7 |
| 20260505011809 | 75 | 200 | 0.0 | 2.0 | 0.00 | 0.00 | 0.00 | 46 | 1011.8 |
| 20260505011759 | 75 | 200 | 0.0 | 2.0 | 0.00 | 0.00 | 0.00 | 48 | 1011.7 |
| 20260505011504 | 75 | 200 | 0.0 | 2.0 | 0.00 | 0.00 | 0.00 | 46 | 1011.8 |
| 20260505010752 | 75 | 200 | 0.0 | 2.0 | 0.00 | 0.00 | 0.00 | 49 | 1011.8 |
| 20260505010250 | 75 | 200 | 0.0 | 2.0 | 0.00 | 0.00 | 0.00 | 48 | 1011.8 |
| 20260505005751 | 75 | 200 | 0.0 | 2.0 | 0.00 | 0.00 | 0.00 | 46 | 1011.8 |
| 20260505005248 | 75 | 200 | 0.0 | 2.0 | 0.00 | 0.00 | 0.00 | 45 | 1011.8 |
| 20260505004746 | 76 | 200 | 0.0 | 2.0 | 0.00 | 0.00 | 0.00 | 46 | 1011.8 |
| 20260505004527 | 76 | 200 | 0.0 | 2.0 | 0.00 | 0.00 | 0.00 | 45 | 1011.8 |
| 20260505004247 | 76 | 200 | 0.0 | 2.0 | 0.00 | 0.00 | 0.00 | 45 | 1011.8 |
| 20260505004020 | 76 | 200 | 0.0 | 2.0 | 0.00 | 0.00 | 0.00 | 45 | 1011.9 |
| 20260505003744 | 76 | 200 | 0.0 | 2.0 | 0.00 | 0.00 | 0.00 | 45 | 1011.9 |
| 20260505003242 | 76 | 200 | 0.0 | 2.0 | 0.00 | 0.00 | 0.00 | 44 | 1011.8 |
| 20260505002741 | 76 | 200 | 0.0 | 2.0 | 0.00 | 0.00 | 0.00 | 45 | 1011.9 |
| 20260505002240 | 76 | 200 | 0.0 | 2.0 | 0.00 | 0.00 | 0.00 | 45 | 1011.9 |
| 20260505002020 | 77 | 200 | 0.0 | 2.0 | 0.00 | 0.00 | 0.00 | 45 | 1011.9 |
| 20260505001741 | 77 | 200 | 0.0 | 2.0 | 0.00 | 0.00 | 0.00 | 45 | 1011.9 |
| 20260505001235 | 77 | 200 | 0.0 | 2.0 | 0.00 | 0.00 | 0.00 | 42 | 1011.9 |
| 20260505000735 | 77 | 200 | 0.0 | 2.0 | 0.00 | 0.00 | 0.00 | 42 | 1011.9 |
| 20260505000234 | 77 | 200 | 0.0 | 2.0 | 0.00 | 0.00 | 0.00 | 42 | 1012.0 |
| 20260505000008 | 77 | 160 | 0.0 | 2.0 | 0.00 | 0.00 | 0.00 | 40 | 1012.0 |
| 20260504235730 | 77 | 160 | 0.0 | 2.0 | 0.00 | 0.00 | 0.00 | 40 | 1012.0 |
| 20260504235229 | 77 | 101 | 0.0 | 2.0 | 0.00 | 0.00 | 0.00 | 41 | 1012.0 |
| 20260504234730 | 77 | 140 | 0.0 | 2.0 | 0.00 | 0.00 | 0.00 | 41 | 1012.1 |
| 20260504234231 | 77 | 140 | 0.0 | 2.0 | 0.00 | 0.00 | 0.00 | 42 | 1012.2 |
| 20260504234004 | 77 | 140 | 0.0 | 2.0 | 0.00 | 0.00 | 0.00 | 40 | 1012.1 |
| 20260504233728 | 77 | 140 | 0.0 | 2.0 | 0.00 | 0.00 | 0.00 | 40 | 1012.1 |
| 20260504233230 | 78 | 140 | 0.0 | 2.0 | 0.00 | 0.00 | 0.00 | 41 | 1012.1 |
| 20260504232743 | 78 | 140 | 0.0 | 2.0 | 0.00 | 0.00 | 0.00 | 40 | 1012.2 |
| 20260504232230 | 78 | 140 | 0.0 | 2.0 | 0.00 | 0.00 | 0.00 | 40 | 1012.2 |
| 20260504231728 | 78 | 89 | 0.0 | 2.0 | 0.00 | 0.00 | 0.00 | 41 | 1012.2 |
| 20260504231444 | 78 | 89 | 0.0 | 2.0 | 0.00 | 0.00 | 0.00 | 41 | 1012.2 |
| 20260504230729 | 78 | 89 | 0.0 | 3.0 | 0.00 | 0.00 | 0.00 | 40 | 1012.1 |
| 20260504230230 | 79 | 70 | 0.0 | 3.0 | 0.00 | 0.00 | 0.00 | 42 | 1012.3 |
| 20260504225730 | 79 | 102 | 0.0 | 2.0 | 0.00 | 0.00 | 0.00 | 39 | 1012.2 |
| 20260504225227 | 79 | 102 | 0.0 | 2.0 | 0.00 | 0.00 | 0.00 | 38 | 1012.3 |
| 20260504224720 | 79 | 118 | 0.0 | 2.0 | 0.00 | 0.00 | 0.00 | 39 | 1012.3 |
| 20260504224510 | 79 | 96 | 0.0 | 2.0 | 0.00 | 0.00 | 0.00 | 39 | 1012.3 |
| 20260504224500 | 79 | 315 | 0.0 | 2.0 | 0.00 | 0.00 | 0.00 | 40 | 1012.3 |
| 20260504224437 | 79 | 96 | 0.0 | 2.0 | 0.00 | 0.00 | 0.00 | 39 | 1012.3 |
| 20260504223220 | 79 | 315 | 0.0 | 2.0 | 0.00 | 0.00 | 0.00 | 43 | 1012.4 |
| 20260504222957 | 79 | 11 | 0.0 | 2.0 | 0.00 | 0.00 | 0.00 | 38 | 1012.4 |
| 20260504222717 | 79 | 11 | 0.0 | 2.0 | 0.00 | 0.00 | 0.00 | 38 | 1012.4 |
| 20260504222216 | 79 | 273 | 0.0 | 2.0 | 0.00 | 0.00 | 0.00 | 40 | 1012.5 |
| 20260504221715 | 79 | 273 | 0.0 | 3.0 | 0.00 | 0.00 | 0.00 | 39 | 1012.6 |
| 20260504221216 | 80 | 92 | 0.0 | 3.0 | 0.00 | 0.00 | 0.00 | 40 | 1012.7 |
| 20260504220954 | 80 | 92 | 0.0 | 3.0 | 0.00 | 0.00 | 0.00 | 40 | 1012.7 |
| 20260504220715 | 80 | 92 | 0.0 | 3.0 | 0.00 | 0.00 | 0.00 | 40 | 1012.7 |
| 20260504220215 | 80 | 99 | 0.0 | 3.0 | 0.00 | 0.00 | 0.00 | 40 | 1012.7 |
| 20260504215715 | 80 | 287 | 0.0 | 2.0 | 0.00 | 0.00 | 0.00 | 37 | 1012.7 |
| 20260504215215 | 80 | 287 | 0.0 | 2.0 | 0.00 | 0.00 | 0.00 | 39 | 1012.9 |
| 20260504214711 | 80 | 100 | 0.0 | 2.0 | 0.00 | 0.00 | 0.00 | 39 | 1012.8 |
| 20260504214422 | 81 | 288 | 0.0 | 2.0 | 0.00 | 0.00 | 0.00 | 40 | 1012.8 |
| 20260504213950 | 81 | 108 | 0.0 | 2.0 | 0.00 | 0.00 | 0.00 | 37 | 1012.8 |
| 20260504213712 | 81 | 108 | 0.0 | 2.0 | 0.00 | 0.00 | 0.00 | 37 | 1012.8 |
| 20260504213215 | 81 | 108 | 0.0 | 2.0 | 0.00 | 0.00 | 0.00 | 35 | 1012.8 |
| 20260504213011 | 81 | 108 | 0.0 | 2.0 | 0.00 | 0.00 | 0.00 | 35 | 1012.8 |
| 20260504213006 | 82 | 286 | 0.0 | 2.0 | 0.00 | 0.00 | 0.00 | 34 | 1012.9 |
| 20260504213002 | 82 | 286 | 1.0 | 2.0 | 0.00 | 0.00 | 0.00 | 34 | 1012.9 |
| 20260504212726 | 81 | 108 | 0.0 | 2.0 | 0.00 | 0.00 | 0.00 | 35 | 1012.8 |
| 20260504212216 | 82 | 286 | 0.0 | 2.0 | 0.00 | 0.00 | 0.00 | 34 | 1012.9 |
| 20260504211211 | 82 | 286 | 0.0 | 2.0 | 0.00 | 0.00 | 0.00 | 36 | 1012.8 |
| 20260504210946 | 83 | 286 | 0.0 | 2.0 | 0.00 | 0.00 | 0.00 | 35 | 1012.9 |
| 20260504210713 | 83 | 286 | 0.0 | 2.0 | 0.00 | 0.00 | 0.00 | 35 | 1012.9 |
| 20260504210224 | 83 | 278 | 0.0 | 2.0 | 0.00 | 0.00 | 0.00 | 32 | 1013.0 |
| 20260504210214 | 83 | 286 | 1.0 | 2.0 | 0.00 | 0.00 | 0.00 | 36 | 1012.9 |
| 20260504205213 | 83 | 278 | 0.0 | 2.0 | 0.00 | 0.00 | 0.00 | 36 | 1012.9 |
| 20260504204712 | 83 | 278 | 0.0 | 2.0 | 0.00 | 0.00 | 0.00 | 33 | 1013.0 |
| 20260504204212 | 83 | 136 | 0.0 | 2.0 | 0.00 | 0.00 | 0.00 | 34 | 1013.1 |
| 20260504203711 | 83 | 297 | 0.0 | 2.0 | 0.00 | 0.00 | 0.00 | 35 | 1013.1 |
| 20260504203211 | 83 | 297 | 0.0 | 2.0 | 0.00 | 0.00 | 0.00 | 39 | 1013.0 |
| 20260504202711 | 82 | 302 | 0.0 | 2.0 | 0.00 | 0.00 | 0.00 | 38 | 1013.1 |
| 20260504202446 | 82 | 302 | 0.0 | 2.0 | 0.00 | 0.00 | 0.00 | 39 | 1013.1 |
| 20260504202213 | 82 | 302 | 0.0 | 2.0 | 0.00 | 0.00 | 0.00 | 39 | 1013.1 |
| 20260504201923 | 82 | 302 | 0.0 | 2.0 | 0.00 | 0.00 | 0.00 | 39 | 1013.0 |
| 20260504201217 | 82 | 105 | 0.0 | 2.0 | 0.00 | 0.00 | 0.00 | 42 | 1013.0 |
| 20260504200924 | 82 | 105 | 0.0 | 2.0 | 0.00 | 0.00 | 0.00 | 38 | 1013.1 |
| 20260504200212 | 82 | 165 | 0.0 | 2.0 | 0.00 | 0.00 | 0.00 | 39 | 1013.1 |
| 20260504195711 | 82 | 257 | 0.0 | 2.0 | 0.00 | 0.00 | 0.00 | 41 | 1013.1 |
| 20260504195212 | 82 | 257 | 0.0 | 2.0 | 0.00 | 0.00 | 0.00 | 41 | 1013.1 |
| 20260504194709 | 82 | 288 | 0.0 | 2.0 | 0.00 | 0.00 | 0.00 | 40 | 1013.1 |
| 20260504194209 | 83 | 288 | 0.0 | 2.0 | 0.00 | 0.00 | 0.00 | 39 | 1013.0 |
| 20260504193708 | 82 | 160 | 0.0 | 2.0 | 0.00 | 0.00 | 0.00 | 41 | 1013.1 |
| 20260504193207 | 82 | 120 | 0.0 | 2.0 | 0.00 | 0.00 | 0.00 | 39 | 1013.1 |
| 20260504192707 | 82 | 120 | 0.0 | 2.0 | 0.00 | 0.00 | 0.00 | 38 | 1013.1 |
| 20260504192206 | 82 | 91 | 0.0 | 2.0 | 0.00 | 0.00 | 0.00 | 40 | 1013.1 |
| 20260504191702 | 82 | 40 | 0.0 | 2.0 | 0.00 | 0.00 | 0.00 | 40 | 1013.3 |
| 20260504191156 | 81 | 110 | 0.0 | 2.0 | 0.00 | 0.00 | 0.00 | 42 | 1013.3 |
| 20260504190657 | 81 | 110 | 0.0 | 2.0 | 0.00 | 0.00 | 0.00 | 45 | 1013.3 |
| 20260504190157 | 81 | 110 | 0.0 | 2.0 | 0.00 | 0.00 | 0.00 | 43 | 1013.3 |
| 20260504185910 | 81 | 130 | 0.0 | 2.0 | 0.00 | 0.00 | 0.00 | 44 | 1013.4 |
| 20260504185155 | 81 | 270 | 0.0 | 3.0 | 0.00 | 0.00 | 0.00 | 43 | 1013.6 |
| 20260504184929 | 81 | 270 | 0.0 | 3.0 | 0.00 | 0.00 | 0.00 | 43 | 1013.6 |
| 20260504184655 | 81 | 270 | 0.0 | 3.0 | 0.00 | 0.00 | 0.00 | 43 | 1013.6 |
| 20260504184152 | 80 | 306 | 0.0 | 2.0 | 0.00 | 0.00 | 0.00 | 45 | 1013.6 |
| 20260504183650 | 80 | 306 | 0.0 | 2.0 | 0.00 | 0.00 | 0.00 | 44 | 1013.6 |
| 20260504183400 | 80 | 306 | 0.0 | 2.0 | 0.00 | 0.00 | 0.00 | 45 | 1013.6 |
| 20260504182647 | 79 | 306 | 0.0 | 2.0 | 0.00 | 0.00 | 0.00 | 43 | 1013.5 |
| 20260504182144 | 79 | 306 | 0.0 | 2.0 | 0.00 | 0.00 | 0.00 | 43 | 1013.6 |
| 20260504181642 | 79 | 306 | 0.0 | 2.0 | 0.00 | 0.00 | 0.00 | 43 | 1013.5 |
| 20260504181139 | 78 | 306 | 0.0 | 2.0 | 0.00 | 0.00 | 0.00 | 44 | 1013.6 |
| 20260504180637 | 78 | 306 | 0.0 | 2.0 | 0.00 | 0.00 | 0.00 | 48 | 1013.5 |
| 20260504180135 | 78 | 306 | 0.0 | 2.0 | 0.00 | 0.00 | 0.00 | 46 | 1013.5 |
| 20260504175645 | 77 | 306 | 0.0 | 2.0 | 0.00 | 0.00 | 0.00 | 46 | 1013.5 |
| 20260504175636 | 77 | 306 | 0.0 | 2.0 | 0.00 | 0.00 | 0.00 | 48 | 1013.5 |
| 20260504175343 | 77 | 306 | 0.0 | 2.0 | 0.00 | 0.00 | 0.00 | 46 | 1013.5 |
| 20260504174631 | 76 | 306 | 0.0 | 2.0 | 0.00 | 0.00 | 0.00 | 48 | 1013.5 |
| 20260504174132 | 76 | 306 | 0.0 | 2.0 | 0.00 | 0.00 | 0.00 | 48 | 1013.5 |
| 20260504173630 | 75 | 302 | 0.0 | 2.0 | 0.00 | 0.00 | 0.00 | 49 | 1013.5 |
| 20260504173129 | 75 | 300 | 0.0 | 2.0 | 0.00 | 0.00 | 0.00 | 50 | 1013.4 |
| 20260504172629 | 74 | 271 | 0.0 | 2.0 | 0.00 | 0.00 | 0.00 | 54 | 1013.4 |
| 20260504172407 | 73 | 34 | 0.0 | 2.0 | 0.00 | 0.00 | 0.00 | 51 | 1013.5 |
| 20260504172126 | 73 | 34 | 0.0 | 2.0 | 0.00 | 0.00 | 0.00 | 51 | 1013.5 |
| 20260504171635 | 73 | 110 | 0.0 | 2.0 | 0.00 | 0.00 | 0.00 | 53 | 1013.5 |
| 20260504171625 | 73 | 60 | 0.0 | 2.0 | 0.00 | 0.00 | 0.00 | 54 | 1013.5 |
| 20260504170626 | 72 | 87 | 0.0 | 2.0 | 0.00 | 0.00 | 0.00 | 53 | 1013.6 |
| 20260504170125 | 71 | 87 | 0.0 | 2.0 | 0.00 | 0.00 | 0.00 | 56 | 1013.6 |
| 20260504160118 | 59 | 188 | 0.0 | 2.0 | 0.00 | 0.00 | 0.00 | 77 | 1013.5 |
| 20260504151111 | 54 | 267 | 0.0 | 0.0 | 0.00 | 0.00 | 0.00 | 95 | 1013.1 |
| 20260504150609 | 54 | 267 | 0.0 | 0.0 | 0.00 | 0.00 | 0.00 | 95 | 1013.1 |
| 20260504150110 | 53 | 267 | 0.0 | 0.0 | 0.00 | 0.00 | 0.00 | 95 | 1012.9 |
| 20260504141101 | 51 | 0.0 | 0.0 | 0.00 | 0.00 | 0.00 | 94 | 1012.7 | |
| 20260504140837 | 51 | 0.0 | 0.0 | 0.00 | 0.00 | 0.00 | 94 | 1012.7 | |
| 20260504140601 | 51 | 0.0 | 0.0 | 0.00 | 0.00 | 0.00 | 94 | 1012.7 | |
| 20260504130515 | 50 | 0.0 | 0.0 | 0.00 | 0.00 | 0.00 | 92 | 1012.3 | |
| 20260504120231 | 51 | 0.0 | 0.0 | 0.00 | 0.00 | 0.00 | 92 | 1012.2 | |
| 20260504110416 | 52 | 0.0 | 0.0 | 0.00 | 0.00 | 0.00 | 90 | 1012.1 | |
| 20260504110406 | 52 | 0.0 | 0.0 | 0.00 | 0.00 | 0.00 | 90 | 1012.2 | |
| 20260504110118 | 52 | 0.0 | 0.0 | 0.00 | 0.00 | 0.00 | 90 | 1012.1 | |
| 20260504100330 | 52 | 267 | 0.0 | 0.0 | 0.00 | 0.00 | 0.00 | 89 | 1012.1 |
| 20260504081325 | 54 | 267 | 0.0 | 0.0 | 0.00 | 0.00 | 0.00 | 85 | 1012.1 |
| 20260504081312 | 54 | 267 | 0.0 | 0.0 | 0.00 | 0.00 | 0.00 | 85 | 1012.2 |
| 20260504080810 | 54 | 267 | 0.0 | 0.0 | 0.00 | 0.00 | 0.00 | 85 | 1012.2 |
| 20260504080308 | 54 | 267 | 0.0 | 0.0 | 0.00 | 0.00 | 0.00 | 85 | 1012.1 |
| 20260504070301 | 56 | 267 | 0.0 | 0.0 | 0.00 | 0.00 | 0.00 | 80 | 1012.4 |
| 20260504050254 | 61 | 267 | 0.0 | 0.0 | 0.00 | 0.00 | 0.00 | 72 | 1012.3 |
| 20260504045754 | 62 | 267 | 0.0 | 0.0 | 0.00 | 0.00 | 0.00 | 71 | 1012.3 |
| 20260504045533 | 62 | 267 | 0.0 | 0.0 | 0.00 | 0.00 | 0.00 | 72 | 1012.3 |
| 20260504045254 | 62 | 267 | 0.0 | 0.0 | 0.00 | 0.00 | 0.00 | 72 | 1012.3 |
| 20260504044750 | 62 | 267 | 0.0 | 0.0 | 0.00 | 0.00 | 0.00 | 70 | 1012.3 |
| 20260504044529 | 63 | 267 | 0.0 | 0.0 | 0.00 | 0.00 | 0.00 | 72 | 1012.2 |
| 20260504044250 | 63 | 267 | 0.0 | 0.0 | 0.00 | 0.00 | 0.00 | 72 | 1012.2 |
| 20260504044002 | 63 | 267 | 0.0 | 0.0 | 0.00 | 0.00 | 0.00 | 70 | 1012.3 |
| 20260504043245 | 63 | 267 | 0.0 | 0.0 | 0.00 | 0.00 | 0.00 | 69 | 1012.3 |
| 20260504042740 | 64 | 267 | 0.0 | 0.0 | 0.00 | 0.00 | 0.00 | 69 | 1012.3 |
| 20260504042240 | 64 | 267 | 0.0 | 0.0 | 0.00 | 0.00 | 0.00 | 68 | 1012.3 |
| 20260504041740 | 64 | 267 | 0.0 | 0.0 | 0.00 | 0.00 | 0.00 | 67 | 1012.3 |
| 20260504041238 | 65 | 267 | 0.0 | 0.0 | 0.00 | 0.00 | 0.00 | 67 | 1012.3 |
| 20260504041009 | 65 | 267 | 0.0 | 0.0 | 0.00 | 0.00 | 0.00 | 69 | 1012.3 |
| 20260504040734 | 65 | 267 | 0.0 | 0.0 | 0.00 | 0.00 | 0.00 | 69 | 1012.3 |
| 20260504040508 | 65 | 267 | 0.0 | 0.0 | 0.00 | 0.00 | 0.00 | 67 | 1012.2 |
| 20260504040232 | 65 | 267 | 0.0 | 0.0 | 0.00 | 0.00 | 0.00 | 67 | 1012.2 |
| 20260504035945 | 66 | 267 | 0.0 | 0.0 | 0.00 | 0.00 | 0.00 | 65 | 1012.1 |
| 20260504035508 | 66 | 267 | 0.0 | 0.0 | 0.00 | 0.00 | 0.00 | 64 | 1012.1 |
| 20260504035233 | 66 | 267 | 0.0 | 0.0 | 0.00 | 0.00 | 0.00 | 64 | 1012.1 |
| 20260504034946 | 67 | 267 | 0.0 | 0.0 | 0.00 | 0.00 | 0.00 | 68 | 1012.0 |
| 20260504034228 | 67 | 267 | 0.0 | 0.0 | 0.00 | 0.00 | 0.00 | 67 | 1012.1 |
| 20260504033728 | 67 | 267 | 0.0 | 0.0 | 0.00 | 0.00 | 0.00 | 66 | 1012.1 |
| 20260504033228 | 68 | 267 | 0.0 | 0.0 | 0.00 | 0.00 | 0.00 | 66 | 1012.0 |
| 20260504033005 | 68 | 267 | 0.0 | 0.0 | 0.00 | 0.00 | 0.00 | 67 | 1012.1 |
| 20260504032732 | 68 | 267 | 0.0 | 0.0 | 0.00 | 0.00 | 0.00 | 67 | 1012.1 |
| 20260504032230 | 69 | 267 | 0.0 | 0.0 | 0.00 | 0.00 | 0.00 | 64 | 1012.0 |
| 20260504032002 | 69 | 267 | 0.0 | 0.0 | 0.00 | 0.00 | 0.00 | 63 | 1012.0 |
| 20260504031721 | 69 | 267 | 0.0 | 0.0 | 0.00 | 0.00 | 0.00 | 63 | 1012.0 |
| 20260504031222 | 69 | 267 | 0.0 | 0.0 | 0.00 | 0.00 | 0.00 | 60 | 1011.9 |
| 20260504030721 | 70 | 267 | 0.0 | 0.0 | 0.00 | 0.00 | 0.00 | 61 | 1012.0 |
| 20260504030220 | 70 | 267 | 0.0 | 0.0 | 0.00 | 0.00 | 0.00 | 62 | 1012.0 |
| 20260504025955 | 70 | 267 | 0.0 | 0.0 | 0.00 | 0.00 | 0.00 | 62 | 1012.0 |
| 20260504025721 | 70 | 267 | 0.0 | 0.0 | 0.00 | 0.00 | 0.00 | 62 | 1012.0 |
| 20260504025434 | 71 | 267 | 0.0 | 0.0 | 0.00 | 0.00 | 0.00 | 60 | 1012.0 |
| 20260504024720 | 71 | 267 | 0.0 | 0.0 | 0.00 | 0.00 | 0.00 | 59 | 1012.0 |
| 20260504024218 | 71 | 267 | 0.0 | 0.0 | 0.00 | 0.00 | 0.00 | 61 | 1012.0 |
| 20260504023718 | 71 | 267 | 0.0 | 0.0 | 0.00 | 0.00 | 0.00 | 60 | 1012.0 |
| 20260504023218 | 72 | 267 | 0.0 | 0.0 | 0.00 | 0.00 | 0.00 | 60 | 1012.0 |
| 20260504022716 | 72 | 267 | 0.0 | 0.0 | 0.00 | 0.00 | 0.00 | 59 | 1012.0 |